STARLINK-37002, 68164

Orbit data source: Space-Track

STARLINK-37002, 68164 is a payload satellite owned by SpaceX/Seattle (US) in SSO that was launched on Fri, 13 Mar 2026 UTC via an FALCON 9 launch vehicle from the Air Force Western Test Range (AFWTR). Payload-class satellites include a variety of spacecraft equipped with specific instruments for various scientific and technological missions. These include communications satellites like Starlink; space stations such as the ISS; scientific satellites like the Hubble; Earth observation satellites from companies like Planet Labs, Umbra, and HawkEye 360; GPS; miniature CubeSats for education and research; and military/defense satellites.

Loading next visibility...
Identifier
68164, 2026-049Y
Orbit
SSO
Country
Flag of USUS
Related business
Manufacturer
SpaceX/Seattle
Mission
Operational spacecraft
Bus & Motor
STARLINK V2MO, Unknown motor
Mass
575 kg wet, ~530 kg dry
Launch date (UTC)
2026-03-13 (3 months ago)
Launch vehicle
FALCON 9
Launch site
Air Force Western Test Range (AFWTR)
Object type
Payload
Rocket body
Debris
Shape & HBR
Unknown shape, 17.7 m
Radar Cross Section
Large (>1 m²)

Expand to show TLE details & history
Last TLE update: 20 hours ago

TLE from 20 hours ago
0 STARLINK-37002
1 68164U 26049Y   26170.99863823  .00040331  00000-0  12426-2 0  9998
2 68164  97.2853 192.2495 0001201 332.2030  27.9148 15.33504803 15324
Epoch: 2026-06-19T23:58Z
TLE epoch observation values (Epoch: 2026-06-19T23:58:02.343Z)
Latitude
-0.00004°
Longitude
-75.47983°
Altitude
467.751 km
Speed
7.633 km/s
True Right ascension
12h 48m 59s
True Declination
0° 00' 00"
Sunlit
Object was in daylight at epoch
Visualization orbit readout
Latitude
Unknown
Longitude
Unknown
Altitude
Unknown
Speed
Unknown
Apparent Right ascension
Unknown
Apparent Declination
Unknown
Sunlit
N/A
Visualization observer readout
Local Sidereal Time
07:15:24
Azimuth
Unknown
Elevation
Unknown
Doppler factor
Unknown
Orbital elements
Apogee altitude
463.129 km
Perigee altitude
461.486 km
Semi-major axis
6,840.445 km
Eccentricity
0.00012
Inclination
97.2853°
RAAN
192.2495°
Arg. of periapsis
332.203°
True anomaly
27.92124°
Mean anomaly
27.9148°
Eccentric anomaly
27.91802°
Mean motion
3.83634 °/min
Orbital period
93.84 mins
BSTAR
0.0012426
Loading maneuver chart data...
Computing Atmospheric mass density...
Loading historical data...
Loading historical data...
Loading historical data...
Loading historical data...
Loading historical data...
Loading historical data...
Loading historical data...

Documentation

Showing up to 5 results
|